Location: Dalton
(34.7700°N, 84.9700°W)
Time: 11:40:13
(UTC-04:00)

OTV 5 (USA 277) - Pass Details

Date: 14 October 2017
Orbit: 404 x 417 km, 43.0° (Epoch: 07 September)

Event Time Altitude Azimuth Distance (km) Brightness Sun altitude
Rises 19:30:50 0° 272° (W) 2,348 ? -5.9°
Reaches altitude 10° 19:33:09 10° 285° (WNW) 1,488 ? -6.3°
Maximum altitude 19:36:04 27° 346° (NNW) 844 ? -6.9°
Drops below altitude 10° 19:38:59 10° 46° (NE) 1,490 ? -7.5°
Enters shadow 19:39:45 - 51° (NE) 1,764 ? -7.7°
